WS6A-13 Weather Reports


time (UTC)temp
C
wind
direction
speed
KPH
gust
KPH
rain 1hr
cm
rain 24hr
cm
rain mn
cm
humidity
%
barometer
mb
20260508181504 19 88 1.6 4.8 0.00 0.00 0.00 54 1010.7
20260508180004 18 244 1.6 4.8 0.00 0.00 0.00 55 1011.0
20260508174504 18 252 0.0 3.2 0.00 0.00 0.00 54 1011.0
20260508171503 19 253 1.6 9.7 0.00 0.00 0.00 52 1011.6
20260508170004 19 246 3.2 8.0 0.00 0.00 0.00 52 1011.8
20260508164504 19 255 1.6 8.0 0.00 0.00 0.00 54 1012.2
20260508163004 19 244 4.8 9.7 0.00 0.00 0.00 52 1012.3
20260508161504 18 238 1.6 8.0 0.00 0.00 0.00 59 1012.4
20260508160004 18 239 0.0 11.3 0.00 0.00 0.00 60 1012.7
20260508154504 18 252 1.6 11.3 0.00 0.00 0.00 57 1012.8
20260508153004 17 224 1.6 8.0 0.00 0.00 0.00 59 1012.9
20260508151504 17 248 0.0 4.8 0.00 0.00 0.00 58 1013.0
20260508144504 16 49 0.0 4.8 0.00 0.00 0.00 58 1013.2
20260508143004 16 237 1.6 9.7 0.00 0.00 0.00 59 1013.4
20260508141503 15 233 1.6 9.7 0.00 0.00 0.00 60 1013.5
20260508140004 14 265 1.6 8.0 0.00 0.00 0.00 63 1013.5
20260508134503 13 291 0.0 3.2 0.00 0.00 0.00 66 1013.6
20260508133004 12 254 0.0 1.6 0.00 0.00 0.00 68 1013.7
20260508131504 12 229 0.0 0.0 0.00 0.00 0.00 70 1013.5
20260508130004 11 161 0.0 0.0 0.00 0.00 0.00 74 1013.5
20260508124503 10 210 0.0 0.0 0.00 0.00 0.00 74 1013.7
20260508121503 9 138 0.0 0.0 0.00 0.00 0.00 75 1013.7
20260508120004 9 128 0.0 0.0 0.00 0.00 0.00 76 1013.5
20260508113005 8 128 0.0 0.0 0.00 0.00 0.00 77 1013.4
20260508111504 8 128 0.0 0.0 0.00 0.00 0.00 77 1013.3
20260508110004 8 128 0.0 0.0 0.00 0.00 0.00 77 1013.0
20260508104504 7 128 0.0 0.0 0.00 0.00 0.00 80 1012.9
20260508100004 6 128 0.0 0.0 0.00 0.00 0.00 85 1013.1
20260508094505 6 128 0.0 0.0 0.00 0.00 0.00 85 1013.2
20260508093004 6 128 0.0 0.0 0.00 0.00 0.00 85 1013.2
20260508091504 6 128 0.0 0.0 0.00 0.00 0.00 86 1013.2
20260508090004 5 128 0.0 0.0 0.00 0.00 0.00 84 1013.2
20260508083004 5 128 0.0 0.0 0.00 0.00 0.00 82 1013.2
20260508081504 5 128 0.0 0.0 0.00 0.00 0.00 82 1013.1
20260508080004 6 128 0.0 0.0 0.00 0.00 0.00 81 1013.1
20260508074504 6 128 0.0 0.0 0.00 0.00 0.00 80 1013.0
20260508073004 6 128 0.0 0.0 0.00 0.00 0.00 81 1013.1
20260508071504 6 128 0.0 0.0 0.00 0.00 0.00 80 1013.1
20260508070004 6 128 0.0 0.0 0.00 0.00 0.00 81 1013.1
20260508064504 6 128 0.0 0.0 0.00 0.00 0.00 82 1013.4
20260508063021 6 128 0.0 0.0 0.00 0.00 0.00 81 1013.6
20260508061503 6 128 0.0 0.0 0.00 0.00 0.00 81 1013.6
20260508060004 6 128 0.0 0.0 0.00 0.00 0.00 80 1013.6
20260508054504 7 128 0.0 0.0 0.00 0.00 0.00 80 1013.7
20260508053004 7 128 0.0 0.0 0.00 0.00 0.00 80 1013.7
20260508051503 7 128 0.0 0.0 0.00 0.00 0.00 79 1013.7
20260508050004 7 128 0.0 0.0 0.00 0.00 0.00 79 1013.7
20260508044504 7 128 0.0 0.0 0.00 0.00 0.00 78 1013.6
20260508043004 7 128 0.0 0.0 0.00 0.00 0.00 79 1013.5
20260508041504 7 128 0.0 0.0 0.00 0.00 0.00 78 1013.5
20260508040004 7 128 0.0 0.0 0.00 0.00 0.00 77 1013.4
20260508033004 7 128 0.0 0.0 0.00 0.00 0.00 78 1013.5
20260508031504 7 128 0.0 0.0 0.00 0.00 0.00 80 1013.5
20260508030004 8 128 0.0 0.0 0.00 0.00 0.00 77 1013.4
20260508023003 8 128 0.0 0.0 0.00 0.00 0.00 77 1013.3
20260508021504 8 128 0.0 0.0 0.00 0.00 0.00 78 1013.3
20260508020004 8 128 0.0 0.0 0.00 0.00 0.00 73 1013.4
20260508014504 8 128 0.0 0.0 0.00 0.00 0.00 72 1013.3
20260508013004 9 128 0.0 0.0 0.00 0.00 0.00 72 1013.4
20260508011503 10 128 0.0 0.0 0.00 0.00 0.00 70 1013.3
20260508010004 11 128 0.0 0.0 0.00 0.00 0.00 70 1013.3
20260508001504 13 128 0.0 0.0 0.00 0.00 0.00 61 1013.0
20260508000003 13 128 0.0 0.0 0.00 0.00 0.00 57 1013.0
20260507234504 13 163 0.0 3.2 0.00 0.00 0.00 52 1012.9
20260507233004 14 85 0.0 3.2 0.00 0.00 0.00 51 1012.8
20260507224505 14 64 0.0 3.2 0.00 0.00 0.00 44 1012.7
20260507221504 14 59 0.0 12.9 0.00 0.00 0.00 46 1013.0
20260507220004 14 63 0.0 3.2 0.00 0.00 0.00 46 1013.1
20260507214504 14 46 0.0 8.0 0.00 0.00 0.00 46 1013.1
20260507213004 15 17 1.6 4.8 0.00 0.00 0.00 45 1013.2
20260507204504 15 43 1.6 11.3 0.00 0.00 0.00 47 1012.9
20260507203003 15 223 0.0 4.8 0.00 0.00 0.00 49 1012.9
20260507201503 15 42 1.6 11.3 0.00 0.00 0.00 45 1012.9
20260507194504 15 50 1.6 8.0 0.00 0.00 0.00 47 1013.2
20260507193004 15 57 1.6 12.9 0.00 0.00 0.00 48 1013.3
20260507191504 15 61 0.0 9.7 0.00 0.00 0.00 53 1013.3
20260507190005 15 39 1.6 11.3 0.00 0.00 0.00 49 1013.3
20260507184504 15 99 3.2 12.9 0.00 0.00 0.00 50 1013.2
20260507183004 15 170 0.0 12.9 0.00 0.00 0.00 53 1013.6